Regional Weather Roundup
Issued by NWS

Home | Current Version | Previous Version | Graphics & Text | Print | Product List | Glossary On
Versions: 1 2 3 4 5 6 7 8 9 10 11 12 13 14 15 16 17 18 19 20 21 22 23 24 25 26 27 28 29 30 31 32 33 34 35 36 37 38 39 40 41 42 43 44 45 46 47 48 49 50
000
ASUS43 KIND 300009
RWRIN

WEATHER ROUNDUP FOR INDIANA
NATIONAL WEATHER SERVICE INDIANAPOLIS IN
800 PM EDT MON JUN 29 2015

NOTE: "FAIR" INDICATES FEW OR NO CLOUDS BELOW 12,000 FEET WITH NO
SIGNIFICANT WEATHER AND/OR OBSTRUCTIONS TO VISIBILITY.

* - STATION DOES NOT REPORT WEATHER SUCH AS PRECIPITATION OR FOG.

+ - STATION NOT QUALITY CONTROLLED BY THE NATIONAL WEATHER SERVICE.
    USE DATA WITH CAUTION...ESPECIALLY DEWPOINT AND RELATIVE
    HUMIDITY OBSERVATIONS.

INZ001>003-010>013-019-020-300100-
NORTHWEST INDIANA

CITY           SKY/WX    TMP DP  RH WIND       PRES   REMARKS
GARY /AIRPORT/ PTSUNNY   72  68  88 CALM      29.80S
KNOX *+        PTSUNNY   68  63  83 E8        29.80F
LA PORTE +     MOSUNNY   69  64  84 SE5       29.82S
6HR MIN TEMP:  68; 6HR MAX TEMP:  73;

MICHIGAN CITY+ CLOUDY    68  61  77 CALM      29.81R
MONTICELLO +   CLOUDY    69  66  93 S3        29.81R
6HR MIN TEMP:  69; 6HR MAX TEMP:  74; 6HR PCP:  0.02;

RENSSELAER +   CLOUDY    70  66  88 CALM      29.81S
VALPARAISO     PTSUNNY   70  64  81 CALM      29.81S
6HR MIN TEMP:  66; 6HR MAX TEMP:  72; 6HR PCP: TRACE;


$$

LMZ046-743>745-300100-
SOUTHERN LAKE MICHIGAN

STATION/POSITION TIME  TEMP    WIND        PRES    WAVE
                       AIR SEA DIR/SP/G            HT
                 (UTC) (F)     (DEG/KT/KT) (MB)    (FT)
BURNS HARBOR     0000   67      70/  4/  6 1009.8S
MICHIGAN CITY    0000   67     340/  3/  3   N/A
5NW MICH CITY    0000   66 67   10/  4/  4   N/A     0

$$

INZ004-005-014>016-021>024-300100-
NORTH CENTRAL INDIANA

CITY           SKY/WX    TMP DP  RH WIND       PRES   REMARKS
ELKHART        PTSUNNY   66  59  77 SE8       29.83S
GOSHEN         CLOUDY    64  59  83 E5        29.83R
6HR MIN TEMP:  64; 6HR MAX TEMP:  67; 6HR PCP:  0.09;

LOGANSPORT +   CLOUDY    68  63  83 CALM      29.82S
ROCHESTER +    MOSUNNY   68  63  83 E6        29.82S
SOUTH BEND     SUNNY     68  60  75 E9        29.82R
6HR MIN TEMP:  67; 6HR MAX TEMP:  71; 6HR PCP: TRACE;

WARSAW +         N/A     63  59  88 E5        29.83S

$$

INZ006>009-017-018-025>027-300100-
NORTHEAST INDIANA

CITY           SKY/WX    TMP DP  RH WIND       PRES   REMARKS
ANGOLA *+      CLOUDY    63  52  67 SE7       29.84S
AUBURN +       CLOUDY    63  57  82 E5        29.84R
FORT WAYNE     PTSUNNY   65  60  84 CALM      29.83R
6HR MIN TEMP:  64; 6HR MAX TEMP:  65;

HUNTINGTON +   CLOUDY    64  60  87 CALM      29.83S
6HR MIN TEMP:  64; 6HR MAX TEMP:  66;


$$

INZ028-029-035-036-043>045-051>053-300100-
WEST CENTRAL INDIANA

CITY           SKY/WX    TMP DP  RH WIND       PRES   REMARKS
CRAWFORDSVL +  TSTM      69  64  84 NW3       29.82R
6HR MIN TEMP:  66; 6HR MAX TEMP:  74;

GREENCASTLE +  PTSUNNY   72  63  73 NW3       29.82R
LAFAYETTE      LGT RAIN  68  65  90 NW5       29.80S
6HR MIN TEMP:  67; 6HR MAX TEMP:  75; 6HR PCP:  0.08;

TERRE HAUTE    PTSUNNY   76  65  68 W7        29.81R
6HR MIN TEMP:  75; 6HR MAX TEMP:  79;


$$

INZ030>032-037>040-046>048-054>057-064-065-300100-
CENTRAL INDIANA

CITY           SKY/WX    TMP DP  RH WIND       PRES   REMARKS
CP ATTERBURY + MOSUNNY   73  66  78 W6        29.81R
FRANKFORT +    PTSUNNY   71  67  87 NW6       29.84R THUNDER
6HR MIN TEMP:  71; 6HR MAX TEMP:  76;

GREENWOOD *+   PTSUNNY   73  61  64 W3        29.81R
INDIANAPOLIS   PTSUNNY   74  63  68 W9        29.80R
6HR MIN TEMP:  69; 6HR MAX TEMP:  77;

-EAGLE CREEK   PTSUNNY   73  64  73 W6        29.80R
6HR MIN TEMP:  69; 6HR MAX TEMP:  76;

KOKOMO *+      CLOUDY    68  64  88 N3        29.81S
6HR MIN TEMP:  68; 6HR MAX TEMP:  73; 6HR PCP:  0.03;

MARION +       CLOUDY    67  62  83 NE5       29.82S
MT COMFORT *+  MOSUNNY   72  63  73 W3        29.81R
SHELBYVILLE    PTSUNNY   74  65  73 W5        29.80R
6HR MIN TEMP:  70; 6HR MAX TEMP:  78;

ZIONSVILLE +   MOSUNNY   74  61  63 NW3       29.82R
6HR MIN TEMP:  71; 6HR MAX TEMP:  75;


$$

INZ033-034-041-042-049-050-058-059-300100-
EAST CENTRAL INDIANA

CITY           SKY/WX    TMP DP  RH WIND       PRES   REMARKS
MUNCIE         CLOUDY    70  62  76 NE6       29.81R
6HR MIN TEMP:  68; 6HR MAX TEMP:  74;


$$

INZ060-061-067>069-081>083-085>088-300100-
SOUTHWEST INDIANA

CITY           SKY/WX    TMP DP  RH WIND       PRES   REMARKS
EVANSVILLE     SUNNY     80  63  55 W8        29.84R
6HR MIN TEMP:  80; 6HR MAX TEMP:  83;

HUNTINGBURG *+ SUNNY     77  64  65 NW10      29.84R
6HR MIN TEMP:  77; 6HR MAX TEMP:  81;

WASHINGTON +   SUNNY     76  62  62 W8        29.82R
6HR MIN TEMP:  76; 6HR MAX TEMP:  79;


$$

INZ062-063-066-070>080-084-089>092-300100-
SOUTH CENTRAL AND SOUTHEAST INDIANA

CITY           SKY/WX    TMP DP  RH WIND       PRES   REMARKS
BLOOMINGTON    MOSUNNY   74  66  76 W5        29.81R
6HR MIN TEMP:  73; 6HR MAX TEMP:  78;

MADISON *+     SUNNY     77  61  57 W8        29.83R
NORTH VERNON + SUNNY     77  66  69 NW3       29.81R
SEYMOUR +      MOSUNNY   77  64  65 W12       29.80R

$$



USA.gov is the U.S. government's official web portal to all federal, state and local government web resources and services.